TimeCST,TemperatureF,Dew PointF,Humidity,Sea Level PressureIn,VisibilityMPH,Wind Direction,Wind SpeedMPH,Gust SpeedMPH,PrecipitationIn,Events,Conditions,WindDirDegrees,DateUTC
12:15 AM,35.6,35.6,100,30.27,10.0,SSW,6.9,-,0.00,,Partly Cloudy,210,2013-01-06 06:15:00
12:35 AM,33.8,33.8,100,30.27,10.0,South,6.9,-,0.00,,Clear,190,2013-01-06 06:35:00
12:55 AM,33.8,33.8,100,30.27,7.0,South,5.8,-,0.00,,Clear,190,2013-01-06 06:55:00
1:15 AM,33.8,33.8,100,30.26,5.0,South,4.6,-,0.00,,Clear,190,2013-01-06 07:15:00
1:35 AM,33.8,33.8,100,30.26,4.0,South,4.6,-,N/A,,Clear,180,2013-01-06 07:35:00
1:55 AM,33.8,33.8,100,30.26,4.0,South,4.6,-,0.00,,Clear,180,2013-01-06 07:55:00
2:15 AM,33.8,33.8,100,30.26,0.5,SSW,4.6,-,0.00,,Unknown,200,2013-01-06 08:15:00
2:35 AM,32.0,32.0,100,30.26,1.5,SW,5.8,-,0.00,,Clear,220,2013-01-06 08:35:00
2:55 AM,32.0,32.0,100,30.26,4.0,SSW,6.9,-,0.00,,Clear,210,2013-01-06 08:55:00
3:15 AM,32.0,32.0,100,30.26,3.0,SSW,6.9,-,0.00,,Partly Cloudy,210,2013-01-06 09:15:00
3:35 AM,32.0,32.0,100,30.25,2.5,SSW,6.9,-,0.00,,Clear,210,2013-01-06 09:35:00
3:55 AM,32.0,32.0,100,30.25,1.8,SW,6.9,-,0.00,,Mostly Cloudy,230,2013-01-06 09:55:00
4:15 AM,35.6,35.6,100,30.25,0.5,SW,5.8,-,N/A,,Overcast,230,2013-01-06 10:15:00
4:35 AM,35.6,35.6,100,30.24,0.2,WSW,5.8,-,0.00,,Overcast,240,2013-01-06 10:35:00
4:55 AM,35.6,35.6,100,30.24,0.2,WSW,4.6,-,0.00,,Overcast,240,2013-01-06 10:55:00
5:15 AM,35.6,35.6,100,30.25,0.2,SW,5.8,-,0.00,,Overcast,230,2013-01-06 11:15:00
5:35 AM,35.6,35.6,100,30.25,0.2,SW,6.9,-,0.00,,Overcast,220,2013-01-06 11:35:00
5:55 AM,35.6,35.6,100,30.25,0.2,West,5.8,-,0.00,,Overcast,260,2013-01-06 11:55:00
7:50 AM,35.6,35.6,100,30.28,2.0,SW,5.8,-,N/A,,Overcast,220,2013-01-06 13:50:00
8:50 AM,35.6,35.6,100,30.29,4.0,SW,6.9,-,N/A,,Overcast,220,2013-01-06 14:50:00
9:50 AM,37.4,37.4,100,30.31,7.0,WSW,6.9,-,N/A,,Mostly Cloudy,240,2013-01-06 15:50:00
10:50 AM,39.2,39.2,100,30.31,10.0,NNW,6.9,-,N/A,,Mostly Cloudy,330,2013-01-06 16:50:00
11:50 AM,44.6,35.6,71,30.28,10.0,WNW,6.9,-,N/A,,Partly Cloudy,300,2013-01-06 17:50:00
12:50 PM,46.4,35.6,66,30.25,10.0,West,5.8,-,N/A,,Clear,280,2013-01-06 18:50:00
1:50 PM,48.2,33.8,58,30.25,10.0,West,9.2,-,N/A,,Clear,280,2013-01-06 19:50:00
2:50 PM,48.2,33.8,58,30.26,10.0,West,9.2,-,N/A,,Partly Cloudy,280,2013-01-06 20:50:00
4:50 PM,44.6,32.0,61,30.30,10.0,WNW,9.2,-,N/A,,Clear,300,2013-01-06 22:50:00
5:50 PM,39.2,33.8,81,30.33,10.0,North,8.1,-,N/A,,Clear,10,2013-01-06 23:50:00
6:50 PM,35.6,32.0,87,30.35,10.0,NNE,6.9,-,N/A,,Clear,20,2013-01-07 00:50:00
7:50 PM,35.6,33.8,93,30.36,10.0,NNE,5.8,-,N/A,,Clear,30,2013-01-07 01:50:00
8:15 PM,35.6,33.8,93,30.37,10.0,NNE,8.1,-,0.00,,Clear,30,2013-01-07 02:15:00
8:35 PM,35.6,33.8,93,30.38,8.0,NNE,3.5,-,0.00,,Clear,30,2013-01-07 02:35:00
8:55 PM,33.8,32.0,93,30.38,9.0,NNE,4.6,-,0.00,,Clear,30,2013-01-07 02:55:00
9:15 PM,33.8,32.0,93,30.38,9.0,NE,4.6,-,0.00,,Clear,40,2013-01-07 03:15:00
9:35 PM,33.8,32.0,93,30.38,8.0,Calm,Calm,-,N/A,,Clear,0,2013-01-07 03:35:00
9:55 PM,32.0,32.0,100,30.38,6.0,NNE,4.6,-,0.00,,Clear,30,2013-01-07 03:55:00
10:15 PM,33.8,32.0,93,30.38,8.0,NE,5.8,-,0.00,,Clear,40,2013-01-07 04:15:00
10:35 PM,33.8,32.0,93,30.38,9.0,NE,4.6,-,0.00,,Clear,50,2013-01-07 04:35:00
10:55 PM,32.0,32.0,100,30.38,10.0,NE,6.9,-,0.00,,Clear,40,2013-01-07 04:55:00
11:15 PM,32.0,32.0,100,30.39,10.0,NE,5.8,-,0.00,,Clear,40,2013-01-07 05:15:00
11:35 PM,32.0,32.0,100,30.39,10.0,NE,5.8,-,0.00,,Clear,50,2013-01-07 05:35:00
11:55 PM,32.0,32.0,100,30.39,8.0,NE,3.5,-,0.00,,Clear,50,2013-01-07 05:55:00